Location: Katzenstein
(51.7484°N, 10.2155°E)
Time: 05:10:57
(UTC+00:00)

CZ-2C R/B - Pass Details

Date: 17 February 2020
Orbit: 668 x 785 km, 98.1° (Epoch: 28 March)

Event Time Altitude Azimuth Distance (km) Brightness Sun altitude
Rises 04:37:58 0° 9° (N) 3,289 5.9 -18.1°
Reaches altitude 10° 04:40:25 10° 3° (N) 2,357 5.1 -17.7°
Maximum altitude 04:45:15 40° 295° (WNW) 1,147 3.0 -16.9°
Enters shadow 04:47:48 24° 243° (WSW) 1,577 3.6 -16.5°
